Change the Weather History Date:

Saturday, November 16, 2013

  Actual Average Record
Temperature  
Mean Temperature 67 °F 56 °F  
Max Temperature 76 °F 67 °F 86 °F (1931)
Min Temperature 57 °F 44 °F 18 °F (1916)
Degree Days  
Heating Degree Days 0 10  
Month to date heating degree days 153 130  
Since 1 July heating degree days 235 237  
Cooling Degree Days 2 1  
Month to date cooling degree days 6 17  
Year to date cooling degree days 2338 2248  
Growing Degree Days 16 (Base 50)    
Moisture  
Dew Point 63 °F    
Average Humidity 85    
Maximum Humidity 100    
Minimum Humidity 69    
Precipitation  
Precipitation T in 0.16 in 3.20 in (2014)
Month to date precipitation 0.08 2.32  
Year to date precipitation 53.21 46.55  
Sea Level Pressure  
Sea Level Pressure 30.00 in    
Wind  
Wind Speed 10 mph (SSE)    
Max Wind Speed 17 mph    
Max Gust Speed 22 mph    
Visibility 9 miles    
Events      
T = Trace of Precipitation, MM = Missing Value Source: NWS Daily Summary

Daily Weather History Graph

Daily Weather History Graph

Search for Another Location

Airport or City:

Trip Planner

Search our weather history database for the weather conditions in past years. The results will help you decide how hot, cold, wet, or windy it might be!

Date:

Astronomy

Nov. 16, 2013 Rise Set
Actual Time 6:30 AM CST 4:59 PM CST
Civil Twilight 6:04 AM CST 5:25 PM CST
Nautical Twilight 5:34 AM CST 5:54 PM CST
Astronomical Twilight 5:05 AM CST 6:24 PM CST
Moon 4:32 PM CST (11/16) 5:30 AM CST (11/16)
Length of Visible Light 11h 20m
Length of Day
10h 28m
Waxing Gibbous, 99% of the Moon is Illuminated
Nov 16
Waxing Gibbous
Nov 17
Full
Nov 25
Last Quarter
Dec 2
New
Dec 9
First Quarter

Hourly Weather History & Observations

Time (CST) Temp. Dew Point Humidity Pressure Visibility Wind Dir Wind Speed Gust Speed Precip Events Conditions
12:54 AM 57.0 °F 55.9 °F 96% 30.04 in 9.0 mi SE 5.8 mph - N/A   Overcast
1:54 AM 57.9 °F 57.0 °F 97% 30.03 in 10.0 mi SE 5.8 mph - N/A   Overcast
2:54 AM 57.9 °F 57.0 °F 97% 30.02 in 9.0 mi SSE 8.1 mph - N/A   Overcast
3:54 AM 59.0 °F 57.0 °F 93% 30.03 in 9.0 mi SSE 4.6 mph - N/A   Overcast
4:54 AM 59.0 °F 57.0 °F 93% 30.03 in 8.0 mi SE 4.6 mph - N/A   Overcast
5:54 AM 59.0 °F 57.9 °F 96% 30.04 in 6.0 mi SE 4.6 mph - N/A   Overcast
6:54 AM 60.1 °F 57.9 °F 93% 30.05 in 5.0 mi SSE 3.5 mph - N/A   Overcast
7:30 AM 60.8 °F 59.0 °F 94% 30.06 in 5.0 mi South 6.9 mph - N/A   Overcast
7:54 AM 62.1 °F 59.0 °F 90% 30.06 in 6.0 mi SE 8.1 mph - N/A   Overcast
8:54 AM 64.9 °F 61.0 °F 87% 30.06 in 7.0 mi SSE 8.1 mph - N/A   Overcast
9:22 AM 66.2 °F 62.6 °F 88% 30.07 in 7.0 mi SSE 9.2 mph - N/A   Overcast
9:45 AM 66.2 °F 62.6 °F 88% 30.06 in 7.0 mi SSE 8.1 mph - N/A   Overcast
9:54 AM 66.9 °F 62.1 °F 84% 30.06 in 7.0 mi SSE 9.2 mph - N/A   Overcast
10:16 AM 68.0 °F 62.6 °F 83% 30.06 in 10.0 mi SSE 8.1 mph - N/A   Overcast
10:54 AM 70.0 °F 63.0 °F 78% 30.05 in 10.0 mi SSE 8.1 mph - N/A   Overcast
11:54 AM 73.9 °F 64.0 °F 71% 30.01 in 10.0 mi South 10.4 mph - N/A   Mostly Cloudy
12:03 PM 73.4 °F 64.4 °F 73% 30.01 in 10.0 mi SSE 10.4 mph - N/A   Mostly Cloudy
12:54 PM 73.0 °F 64.0 °F 73% 29.99 in 10.0 mi SSE 10.4 mph - N/A   Overcast
1:54 PM 75.0 °F 64.0 °F 69% 29.96 in 10.0 mi South 11.5 mph - N/A   Mostly Cloudy
2:54 PM 73.0 °F 64.9 °F 76% 29.95 in 10.0 mi SSE 11.5 mph - N/A   Overcast
3:54 PM 73.0 °F 64.9 °F 76% 29.95 in 10.0 mi SE 13.8 mph - N/A   Mostly Cloudy
4:54 PM 70.0 °F 64.9 °F 84% 29.94 in 10.0 mi SE 12.7 mph - N/A   Mostly Cloudy
5:24 PM 69.8 °F 64.4 °F 83% 29.95 in 10.0 mi SE 12.7 mph - N/A   Mostly Cloudy
5:45 PM 69.8 °F 64.4 °F 83% 29.96 in 10.0 mi SE 8.1 mph - N/A   Mostly Cloudy
5:54 PM 69.1 °F 64.9 °F 87% 29.95 in 10.0 mi SE 11.5 mph - N/A   Mostly Cloudy
6:33 PM 69.8 °F 64.4 °F 83% 29.95 in 10.0 mi SE 15.0 mph - N/A   Overcast
6:54 PM 69.1 °F 64.9 °F 87% 29.95 in 10.0 mi SE 13.8 mph - N/A   Overcast
7:15 PM 69.8 °F 64.4 °F 83% 29.96 in 10.0 mi SSE 15.0 mph - N/A   Overcast
7:54 PM 69.1 °F 66.0 °F 90% 29.96 in 10.0 mi SSE 15.0 mph - N/A   Overcast
8:54 PM 70.0 °F 66.0 °F 87% 29.96 in 10.0 mi SSE 13.8 mph 19.6 mph N/A   Overcast
9:54 PM 70.0 °F 66.0 °F 87% 29.97 in 10.0 mi SSE 15.0 mph 20.7 mph N/A   Overcast
10:54 PM 70.0 °F 66.0 °F 87% 29.97 in 10.0 mi SSE 15.0 mph - 0.00 in   Overcast
11:30 PM 69.8 °F 66.2 °F 88% 29.96 in 10.0 mi SSE 12.7 mph - N/A   Overcast
11:54 PM 69.1 °F 66.0 °F 90% 29.94 in 10.0 mi SSE 12.7 mph - N/A   Overcast